Location: Ch�tillon
(48.8024°N, 2.2935°E)
Time: 01:03:21
(UTC+00:00)

Oscar 19 - Pass Details

Date: 03 July 2022
Orbit: 773 x 790 km, 98.8° (Epoch: 17 August)

Event Time Altitude Azimuth Distance (km) Brightness Sun altitude
Rises 02:39:05 0° 23° (NNE) 3,264 15.6 -9.4°
Reaches altitude 10° 02:41:40 10° 34° (NNE) 2,330 14.8 -9.2°
Maximum altitude 02:46:11 30° 95° (E) 1,355 12.3 -8.7°
Drops below altitude 10° 02:50:39 10° 157° (SSE) 2,315 12.8 -8.2°
Sets 02:53:13 0° 167° (SSE) 3,239 13.5 -8.0°
